Regional Weather Roundup
Issued by NWS

Home | Current Version | Previous Version | Graphics & Text | Print | Product List | Glossary On
Versions: 1 2 3 4 5 6 7 8 9 10 11 12 13 14 15 16 17 18 19 20 21 22 23 24 25 26 27 28 29 30 31 32 33 34 35 36 37 38 39 40 41 42 43 44 45 46 47 48 49 50
000
ASUS43 KLOT 071308
RWRIL

ILLINOIS REGIONAL WEATHER ROUNDUP
NATIONAL WEATHER SERVICE CHICAGO/ROMEOVILLE IL
800 AM CDT TUE JUL 07 2015

NOTE: "FAIR" INDICATES FEW OR NO CLOUDS BELOW 12,000 FEET WITH NO
SIGNIFICANT WEATHER AND/OR OBSTRUCTIONS TO VISIBILITY.

* THESE STATIONS ARE NOT UNDER NWS QUALITY CONTROL. THEY ALSO MAY NOT
  REPORT WEATHER SUCH AS PRECIPITATION OR FOG.

ILZ001-002-007-009-015-016-024-071400-
NORTHWEST ILLINOIS

CITY           SKY/WX    TMP DP  RH WIND       PRES   REMARKS
MOLINE         CLOUDY    63  57  81 N7        29.99R HAZE
STERLING*      CLOUDY    63  59  88 N10G17    29.98R
SAVANNA*         N/A     64  58  81 N7        29.99S HAZE
$$

ILZ003-004-008-010-011-017-018-071400-
NORTH CENTRAL ILLINOIS

CITY           SKY/WX    TMP DP  RH WIND       PRES   REMARKS
ROCKFORD       CLOUDY    64  57  78 NE13      29.99R HAZE
FREEPORT*      CLOUDY    61  57  86 N5        30.01R FOG
ROCHELLE*      CLOUDY    62  59  90 N12       29.98R
DE KALB*       CLOUDY    59  58  94 N12       29.98R
PERU*          CLOUDY    63  60  90 NE18      29.96R
$$

ILZ005-006-012>014-019>023-071400-
NORTHEAST ILLINOIS

CITY           SKY/WX    TMP DP  RH WIND       PRES   REMARKS
CHICAGO-OHARE  CLOUDY    58  55  90 N15       29.96R FOG
CHICAGO-MIDWAY LGT RAIN  59  54  83 N15       29.96R FOG
AURORA         CLOUDY    62  58  86 NE12      29.96R FOG
LANSING*       CLOUDY    58  55  89 N17G23    29.96R FOG
JOLIET*        LGT RAIN  61  59  95 NE16G22   29.96R
WAUKEGAN       CLOUDY    57  51  80 N12G24    29.96R
DUPAGE AIRPORT CLOUDY    60  56  86 N15       29.96R FOG
KANKAKEE*      LGT RAIN  61  60  96 NE14G21   29.92R
WHEELING       CLOUDY    59  54  83 N12G18    29.97R
MORRIS*        RAIN      60  59  96 NE8       29.93R
ROMEOVILLE*    LGT RAIN  58  57  96 NE22      29.96R
NORTHERLY ISL    N/A     57  54  89 N22         N/A
$$

LMZ740>746-071400-
SOUTHERN LAKE MICHIGAN

STATION/POSITION SKY/WX   TEMP    WIND        PRES    VSBY  WAVE
                          AIR SEA DIR/SP/G                  HT/PER
                          (F)     (DEG/KT/KT) (MB)    (MI)  (FT/S)
HARRISON CRIB              58     350/ 26/ 31   N/A
BURNHAM HARBOR             57     350/ 19/ 22   N/A
CALUMET HARBOR             59     340/ 18/ 24   N/A
BURNS HARBOR               61     360/ 17/ 21 1013.5R
MICHIGAN CITY              60     350/ 19/ 21   N/A
MICHIGAN CITY 6N           60 66  360/ 17/ 23   N/A           5/ 5
ST. JOSEPH                 61 65   30/ 17/ 19   N/A           4/ 2
$$

ILZ025>027-034>036-040-047-049-050-058-095>099-071400-
WEST-CENTRAL ILLINOIS

CITY           SKY/WX    TMP DP  RH WIND       PRES   REMARKS
QUINCY         CLOUDY    63  61  93 N12       29.97R FOG
GALESBURG*     CLOUDY    62  59  89 N14       29.97R FOG
MACOMB*        LGT RAIN  62  61  96 N15       29.97S
JACKSONVILLE*  RAIN      67  66  95 NW10      29.93R
PITTSFIELD*    DRIZZLE   66  64  93 NW10      29.96R
$$

ILZ028>032-037-038-041>044-048-051>054-059>061-071400-
CENTRAL ILLINOIS

CITY           SKY/WX    TMP DP  RH WIND       PRES   REMARKS
PONTIAC        LGT RAIN  66  65  97 N22G29    29.91S
BLOOMINGTON    CLOUDY    67  67 100 N15       29.92R
DECATUR        LGT RAIN  72  70  93 S3        29.89R
PEORIA         LGT RAIN  65  61  87 N7        29.93R FOG
LACON*         DRIZZLE   63  60  92 N8        29.94R
LINCOLN*       CLOUDY    69  67  94 N6        29.91R
SPRINGFIELD    LGT RAIN  70  67  90 NW13G22   29.91R FOG
TAYLORVILLE    LGT RAIN  70  70 100 CALM      29.90R
$$

ILZ033-039-045-046-055>057-062-063-071400-
EAST-CENTRAL ILLINOIS

CITY           SKY/WX    TMP DP  RH WIND       PRES   REMARKS
CHAMPAIGN      LGT RAIN  73  71  93 CALM      29.89F
DANVILLE*      RAIN      73  72  97 W3        29.86F
RANTOUL*       LGT RAIN  74  73  94 CALM      29.88S
MATTOON        LGT RAIN  72  71  97 NW7       29.90R FOG
PARIS*         HVY RAIN  73  71  94 NW3       29.91R
$$

ILZ079-100>102-071400-
SOUTHWEST ILLINOIS

CITY           SKY/WX    TMP DP  RH WIND       PRES   REMARKS
ALTON          LGT RAIN  73 N/A N/A SW7       29.92R
BELLEVILLE     DRIZZLE   75  74  94 SW7       29.91R
CAHOKIA*       LGT RAIN  75  70  84 SW5       29.92R
SPARTA*        DRIZZLE   74  72  93 SW6       29.95R
$$

ILZ064>066-069>071-074>076-080>082-084>086-088>090-092>094-071400-
SOUTH-CENTRAL ILLINOIS

CITY           SKY/WX    TMP DP  RH WIND       PRES   REMARKS
CARBONDALE     CLOUDY    78  73  84 NW15      29.95R HX  81
CAIRO*         CLOUDY    78  75  90 S10G17    29.97S HX  81
EFFINGHAM*     CLOUDY    76  71  84 S8        29.92S
MARION         LGT RAIN  79  75  89 SW12      29.96R HX  82
MT. VERNON     CLOUDY    77  70  78 SW9       29.93S
CENTRALIA*     CLOUDY    76  71  84 SW8       29.92S
SALEM*         CLOUDY    78  73  83 SW8       29.92S HX  80
$$

ILZ067-068-072-073-078-083-087-091-071400-
SOUTHEAST ILLINOIS

CITY           SKY/WX    TMP DP  RH WIND       PRES   REMARKS
LAWRENCEVILLE  CLOUDY    77  73  87 SW14      29.92F
FLORA*         CLOUDY    76  72  88 SW6       29.92S
FAIRFIELD*     CLOUDY    75  73  93 S6        29.92S
HARRISBURG*    PTSUNNY   76  76 100 SW8       29.96S FOG
ROBINSON*      CLOUDY    77  73  87 SW9G16    29.92S
CARMI*         LGT RAIN  74  69  83 W3        29.94S
$$

ABBREVIATIONS USED IN REMARKS
   TC - TEMPERATURE IN CELSIUS
  WCI - WIND CHILL INDEX
   HX - HEAT INDEX
  VSB - VISIBILITY
$$



USA.gov is the U.S. government's official web portal to all federal, state and local government web resources and services.